FW8282 Weather Reports


Display with metric or nautical units.
time (UTC)temp
F
wind
direction
speed
MPH
gust
MPH
rain 1hr
in
rain 24hr
in
rain mn
in
humidity
%
barometer
mb
20260905190546 92 270 0.0 0.0 0.00 0.00 0.00 72 1011.7
20260905190040 92 245 1.0 3.0 0.00 0.00 0.00 69 1011.7
20260905185539 92 337 4.0 6.0 0.00 0.00 0.00 70 1011.6
20260905185038 92 288 4.0 6.0 0.00 0.00 0.00 70 1011.9
20260905184533 92 293 3.0 5.0 0.00 0.00 0.00 70 1012.1
20260905184032 92 273 0.0 0.0 0.00 0.00 0.00 69 1012.0
20260905183532 92 256 0.0 2.0 0.00 0.00 0.00 72 1012.0
20260905183027 91 340 6.0 8.0 0.00 0.00 0.00 72 1011.7
20260905182526 92 283 3.0 6.0 0.00 0.00 0.00 71 1011.9
20260905182021 91 251 0.0 1.0 0.00 0.00 0.00 72 1011.9
20260905181516 92 292 2.0 3.0 0.00 0.00 0.00 71 1011.9
20260905181015 92 230 0.0 0.0 0.00 0.00 0.00 68 1012.1
20260905180510 91 270 1.0 3.0 0.00 0.00 0.00 70 1012.4
20260905180006 92 223 0.0 0.0 0.00 0.00 0.00 68 1012.5
20260905175504 92 285 2.0 2.0 0.00 0.00 0.00 70 1012.3
20260905175000 92 304 0.0 0.0 0.00 0.00 0.00 68 1012.3
20260905174455 92 260 2.0 5.0 0.00 0.00 0.00 68 1012.4
20260905173951 91 248 1.0 5.0 0.00 0.00 0.00 69 1012.5
20260905173447 92 248 1.0 2.0 0.00 0.00 0.00 69 1012.7
20260905172943 93 257 3.0 3.0 0.00 0.00 0.00 69 1012.7
20260905172440 92 264 0.0 0.0 0.00 0.00 0.00 70 1013.0
20260905171936 92 287 0.0 0.0 0.00 0.00 0.00 70 1012.9
20260905171433 91 244 1.0 3.0 0.00 0.00 0.00 68 1013.0
20260905170929 91 246 3.0 6.0 0.00 0.00 0.00 72 1013.0
20260905170425 91 26 1.0 2.0 0.00 0.00 0.00 72 1013.1
20260905165924 91 269 0.0 0.0 0.00 0.00 0.00 71 1013.4
20260905165419 90 258 0.0 0.0 0.00 0.00 0.00 72 1013.3
20260905164914 91 297 0.0 0.0 0.00 0.00 0.00 71 1013.4
20260905164408 90 266 0.0 1.0 0.00 0.00 0.00 71 1013.2
20260905163904 90 260 0.0 0.0 0.00 0.00 0.00 73 1013.6
20260905163401 90 292 0.0 1.0 0.00 0.00 0.00 72 1013.4
20260905162856 91 264 1.0 5.0 0.00 0.00 0.00 75 1013.5
20260905162356 91 263 0.0 0.0 0.00 0.00 0.00 71 1013.8
20260905161851 91 251 4.0 5.0 0.00 0.00 0.00 74 1013.8
20260905161350 90 192 0.0 0.0 0.00 0.00 0.00 74 1013.6
20260905160848 90 318 0.0 0.0 0.00 0.00 0.00 76 1013.6
20260905160343 89 295 2.0 2.0 0.00 0.00 0.00 75 1013.7
20260905155837 89 296 0.0 0.0 0.00 0.00 0.00 76 1013.7
20260905155331 90 223 0.0 0.0 0.00 0.00 0.00 75 1013.9
20260905154830 90 263 0.0 0.0 0.00 0.00 0.00 73 1013.8
20260905154326 90 225 0.0 0.0 0.00 0.00 0.00 76 1013.9
20260905153821 89 309 3.0 3.0 0.00 0.00 0.00 75 1014.0
20260905153318 88 274 0.0 0.0 0.00 0.00 0.00 78 1014.0
20260905152817 88 290 0.0 0.0 0.00 0.00 0.00 79 1013.9
20260905152316 89 257 0.0 0.0 0.00 0.00 0.00 78 1013.8
20260905151812 89 237 0.0 0.0 0.00 0.00 0.00 79 1014.1
20260905151307 89 322 2.0 3.0 0.00 0.00 0.00 78 1014.0
20260905150802 89 239 0.0 0.0 0.00 0.00 0.00 79 1013.8
20260905150302 88 289 3.0 5.0 0.00 0.00 0.00 79 1013.8
20260905145759 88 235 0.0 0.0 0.00 0.00 0.00 79 1013.9
20260905145253 87 229 0.0 0.0 0.00 0.00 0.00 81 1013.7
20260905144752 87 315 0.0 0.0 0.00 0.00 0.00 81 1014.0
20260905144248 87 228 0.0 0.0 0.00 0.00 0.00 82 1014.0
20260905143746 87 194 0.0 0.0 0.00 0.00 0.00 84 1013.7
20260905143241 86 183 0.0 0.0 0.00 0.00 0.00 85 1014.0
20260905142739 86 297 0.0 0.0 0.00 0.00 0.00 84 1013.9
20260905142234 87 213 0.0 0.0 0.00 0.00 0.00 85 1013.9
20260905141730 87 162 0.0 0.0 0.00 0.00 0.00 86 1014.1
20260905141226 87 220 0.0 0.0 0.00 0.00 0.00 85 1013.9
20260905140721 87 197 0.0 0.0 0.00 0.00 0.00 86 1013.8
20260905140220 86 186 0.0 0.0 0.00 0.00 0.00 87 1013.9
20260905135715 86 167 0.0 0.0 0.00 0.00 0.00 86 1014.1
20260905135211 86 172 0.0 0.0 0.00 0.00 0.00 89 1014.1
20260905134710 85 268 0.0 0.0 0.00 0.00 0.00 89 1013.8
20260905134210 86 281 0.0 0.0 0.00 0.00 0.00 88 1013.8
20260905133705 85 180 0.0 0.0 0.00 0.00 0.00 90 1013.8
20260905133200 84 181 0.0 0.0 0.00 0.00 0.00 91 1013.8
20260905132659 84 214 0.0 0.0 0.00 0.00 0.00 92 1013.7
20260905132154 82 177 0.0 0.0 0.00 0.00 0.00 94 1013.9
20260905131649 82 235 0.0 0.0 0.00 0.00 0.00 96 1013.9
20260905131144 81 165 0.0 0.0 0.00 0.00 0.00 98 1014.0
20260905130639 81 165 0.0 0.0 0.00 0.00 0.00 99 1013.8
20260905130138 80 149 0.0 0.0 0.00 0.00 0.00 99 1013.8
20260905125632 79 163 0.0 0.0 0.00 0.00 0.00 99 1013.9
20260905125128 78 191 0.0 0.0 0.00 0.00 0.00 99 1013.9
20260905124625 78 150 0.0 0.0 0.00 0.00 0.00 99 1014.2
20260905124121 78 174 0.0 0.0 0.00 0.00 0.00 99 1014.0
20260905123615 78 154 0.0 0.0 0.00 0.00 0.00 99 1014.0
20260905123113 77 154 0.0 0.0 0.00 0.00 0.00 99 1013.8
20260905122607 77 161 0.0 0.0 0.00 0.00 0.00 99 1013.8
20260905122107 77 162 0.0 0.0 0.00 0.00 0.00 99 1013.6
20260905121602 77 139 0.0 0.0 0.00 0.00 0.00 99 1013.9
20260905121057 77 171 0.0 0.0 0.00 0.00 0.00 99 1013.5
20260905120555 77 178 0.0 0.0 0.00 0.00 0.00 99 1013.7
20260905120051 77 187 0.0 0.0 0.00 0.00 0.00 99 1013.6
20260905115550 76 165 0.0 0.0 0.00 0.00 0.00 99 1013.4
20260905115045 76 162 0.0 0.0 0.00 0.00 0.00 99 1013.2
20260905114544 76 165 0.0 0.0 0.00 0.00 0.00 99 1013.4
20260905114043 76 170 0.0 0.0 0.00 0.00 0.00 99 1013.5
20260905113538 76 176 0.0 0.0 0.00 0.00 0.00 99 1013.3
20260905113034 76 179 0.0 0.0 0.00 0.00 0.00 99 1013.2
20260905112529 76 176 0.0 0.0 0.00 0.00 0.00 99 1013.2
20260905112024 76 176 0.0 0.0 0.00 0.00 0.00 99 1013.0
20260905111519 76 176 0.0 0.0 0.00 0.00 0.00 99 1013.2
20260905111018 76 176 0.0 0.0 0.00 0.00 0.00 99 1013.2
20260905110518 75 176 0.0 0.0 0.00 0.00 0.00 99 1013.2
20260905110013 76 176 0.0 0.0 0.00 0.00 0.00 99 1013.3
20260905105507 76 176 0.0 0.0 0.00 0.00 0.00 99 1013.3
20260905105006 75 176 0.0 0.0 0.00 0.00 0.00 99 1013.1
20260905104503 75 173 0.0 0.0 0.00 0.00 0.00 99 1013.1
20260905103957 75 173 0.0 0.0 0.00 0.00 0.00 99 1013.0
20260905103452 75 172 0.0 0.0 0.00 0.00 0.00 99 1013.1
20260905102948 75 172 0.0 0.0 0.00 0.00 0.00 99 1012.9
20260905102444 75 172 0.0 0.0 0.00 0.00 0.00 99 1013.0
20260905101939 75 172 0.0 0.0 0.00 0.00 0.00 99 1013.1
20260905101438 76 172 0.0 0.0 0.00 0.00 0.00 99 1013.1
20260905100937 76 161 0.0 0.0 0.00 0.00 0.00 99 1013.0
20260905100433 76 177 0.0 0.0 0.00 0.00 0.00 99 1013.1
20260905095932 76 177 0.0 0.0 0.00 0.00 0.00 99 1012.8
20260905095432 76 176 0.0 0.0 0.00 0.00 0.00 99 1013.1
20260905094927 76 174 0.0 0.0 0.00 0.00 0.00 99 1012.8
20260905094423 75 172 0.0 0.0 0.00 0.00 0.00 99 1012.7
20260905093922 76 172 0.0 0.0 0.00 0.00 0.00 99 1012.9
20260905093418 76 172 0.0 0.0 0.00 0.00 0.00 99 1012.8
20260905092913 76 169 0.0 0.0 0.00 0.00 0.00 99 1012.7
20260905092408 76 169 0.0 0.0 0.00 0.00 0.00 99 1012.7
20260905091903 76 169 0.0 0.0 0.00 0.00 0.00 99 1012.5
20260905091403 76 172 0.0 0.0 0.00 0.00 0.00 99 1012.6
20260905090902 76 172 0.0 0.0 0.00 0.00 0.00 99 1012.5
20260905090358 76 169 0.0 0.0 0.00 0.00 0.00 99 1012.5
20260905085856 76 172 0.0 0.0 0.00 0.00 0.00 99 1012.5
20260905085351 76 172 0.0 0.0 0.00 0.00 0.00 99 1012.5
20260905084848 76 176 0.0 0.0 0.00 0.00 0.00 99 1012.4
20260905084346 76 172 0.0 0.0 0.00 0.00 0.00 99 1012.6
20260905083841 76 172 0.0 0.0 0.00 0.00 0.00 99 1011.9
20260905083337 76 169 0.0 0.0 0.00 0.00 0.00 99 1012.4
20260905082832 76 170 0.0 0.0 0.00 0.00 0.00 99 1012.5
20260905082328 76 172 0.0 0.0 0.00 0.00 0.00 99 1012.5
20260905081823 76 175 0.0 0.0 0.00 0.00 0.00 99 1012.5
20260905081318 76 169 0.0 0.0 0.00 0.00 0.00 99 1012.5
20260905080817 76 169 0.0 0.0 0.00 0.00 0.00 99 1012.6
20260905080312 76 169 0.0 0.0 0.00 0.00 0.00 99 1012.5
20260905075811 76 169 0.0 0.0 0.00 0.00 0.00 99 1012.5
20260905075310 76 169 0.0 0.0 0.00 0.00 0.00 99 1012.7
20260905074809 76 169 0.0 0.0 0.00 0.00 0.00 99 1012.5
20260905074306 76 170 0.0 0.0 0.00 0.00 0.00 99 1012.5
20260905073801 77 170 0.0 0.0 0.00 0.00 0.00 99 1012.7
20260905073256 76 176 0.0 0.0 0.00 0.00 0.00 99 1012.7
20260905072755 77 176 0.0 0.0 0.00 0.00 0.00 99 1012.5
20260905072251 77 176 0.0 0.0 0.00 0.00 0.00 99 1012.6
20260905071748 77 172 0.0 0.0 0.00 0.00 0.00 99 1012.7
20260905071243 76 172 0.0 0.0 0.00 0.00 0.00 99 1012.9
20260905070732 77 172 0.0 0.0 0.00 0.00 0.00 99 1012.7
20260905070229 77 172 0.0 0.0 0.00 0.00 0.00 99 1012.8
20260905065727 77 169 0.0 0.0 0.00 0.00 0.00 99 1012.8
20260905065221 77 169 0.0 0.0 0.00 0.00 0.00 99 1012.9
20260905064716 77 169 0.0 0.0 0.00 0.00 0.00 99 1012.7
20260905064212 77 168 0.0 0.0 0.00 0.00 0.00 99 1012.8
20260905063710 77 162 0.0 0.0 0.00 0.00 0.00 99 1013.0
20260905063207 76 162 0.0 0.0 0.00 0.00 0.00 99 1012.8
20260905062703 77 162 0.0 0.0 0.00 0.00 0.00 99 1013.0
20260905062202 77 157 0.0 0.0 0.00 0.00 0.00 99 1012.8
20260905061701 77 162 0.0 0.0 0.00 0.00 0.00 99 1012.9
20260905061156 77 169 0.0 0.0 0.00 0.00 0.00 99 1012.9
20260905060652 77 165 0.0 0.0 0.00 0.00 0.00 99 1012.8
20260905060148 77 156 0.0 0.0 0.00 0.00 0.00 99 1013.1
20260905055646 77 153 0.0 0.0 0.00 0.00 0.00 99 1013.2
20260905055142 77 155 0.0 0.0 0.00 0.00 0.00 99 1013.3
20260905054637 77 155 0.0 0.0 0.00 0.00 0.00 99 1013.4
20260905054133 77 153 0.0 0.0 0.00 0.00 0.00 99 1013.3
20260905053632 77 146 0.0 0.0 0.00 0.00 0.00 99 1013.5
20260905053128 77 155 0.0 0.0 0.00 0.00 0.00 99 1013.4
20260905052627 77 153 0.0 0.0 0.00 0.00 0.00 99 1013.6
20260905052122 77 153 0.0 0.0 0.00 0.00 0.00 99 1013.7
20260905051617 77 153 0.0 0.0 0.00 0.00 0.00 99 1013.7
20260905051114 77 153 0.0 0.0 0.00 0.00 0.00 99 1013.6
20260905050610 77 153 0.0 0.0 0.00 0.00 0.00 99 1013.8
20260905050107 77 156 0.0 0.0 0.00 0.00 0.00 99 1013.7
20260905045606 77 157 0.0 0.0 0.00 0.00 0.00 99 1013.7
20260905045102 77 157 0.0 0.0 0.00 0.00 0.00 99 1013.7
20260905044601 77 156 0.0 0.0 0.00 0.00 0.00 99 1014.0
20260905044056 77 155 0.0 0.0 0.00 0.00 0.00 99 1014.0
20260905043555 77 155 0.0 0.0 0.00 0.00 0.00 99 1014.1
20260905043051 77 156 0.0 0.0 0.00 0.00 0.00 99 1013.9
20260905042549 77 152 0.0 0.0 0.00 0.00 0.00 99 1014.2
20260905042045 77 154 0.0 0.0 0.00 0.00 0.00 99 1014.0
20260905041540 77 154 0.0 0.0 0.00 0.00 0.00 98 1013.7
20260905041036 77 154 0.0 0.0 0.00 0.00 0.00 98 1014.0
20260905040535 77 155 0.0 0.0 0.00 0.00 0.00 98 1013.8
20260905040034 77 154 0.0 0.0 0.00 0.00 0.00 98 1013.8
20260905035529 78 154 0.0 0.0 0.00 0.00 0.00 98 1014.0
20260905035026 78 152 0.0 0.0 0.00 0.00 0.00 98 1013.9
20260905034521 78 164 0.0 0.0 0.00 0.00 0.00 98 1013.9
20260905034021 78 163 0.0 0.0 0.00 0.00 0.00 98 1013.9
20260905033515 78 156 0.0 0.0 0.00 0.00 0.00 98 1014.0
20260905033011 78 156 0.0 0.0 0.00 0.00 0.00 98 1014.1
20260905032506 78 150 0.0 0.0 0.00 0.00 0.00 97 1014.2
20260905032001 78 155 0.0 0.0 0.00 0.00 0.00 97 1014.2
20260905031456 78 146 0.0 0.0 0.00 0.00 0.00 97 1014.4
20260905030951 78 154 0.0 0.0 0.00 0.00 0.00 97 1014.3
20260905030447 78 156 0.0 0.0 0.00 0.00 0.00 97 1014.4
20260905025945 78 151 0.0 0.0 0.00 0.00 0.00 97 1014.4
20260905025441 78 152 0.0 0.0 0.00 0.00 0.00 97 1014.4
20260905024937 78 143 0.0 0.0 0.00 0.00 0.00 97 1014.5
20260905024438 78 153 0.0 0.0 0.00 0.00 0.00 97 1014.3
20260905023933 78 153 0.0 0.0 0.00 0.00 0.00 97 1014.3
20260905023428 78 159 0.0 0.0 0.00 0.00 0.00 97 1014.2
20260905022927 78 154 0.0 0.0 0.00 0.00 0.00 96 1014.2
20260905022423 78 145 0.0 0.0 0.00 0.00 0.00 96 1014.3
20260905021918 78 128 0.0 0.0 0.00 0.00 0.00 96 1014.2
20260905021418 78 139 0.0 0.0 0.00 0.00 0.00 96 1014.1
20260905020913 78 158 0.0 0.0 0.00 0.00 0.00 95 1014.2
20260905020413 78 152 0.0 0.0 0.00 0.00 0.00 95 1014.1
20260905015912 78 123 0.0 0.0 0.00 0.00 0.00 95 1014.3
20260905015410 79 148 0.0 0.0 0.00 0.00 0.00 95 1014.2
20260905014910 79 51 0.0 0.0 0.00 0.00 0.00 95 1014.0
20260905014406 79 146 0.0 0.0 0.00 0.00 0.00 94 1013.9
20260905013901 79 151 0.0 0.0 0.00 0.00 0.00 94 1014.2
20260905013357 79 152 0.0 0.0 0.00 0.00 0.00 94 1014.0
20260905012852 79 127 0.0 0.0 0.00 0.00 0.00 94 1013.9
20260905012347 79 154 0.0 0.0 0.00 0.00 0.00 93 1014.0
20260905011844 79 145 0.0 0.0 0.00 0.00 0.00 93 1013.8
20260905011339 79 142 0.0 0.0 0.00 0.00 0.00 93 1013.9
20260905010835 80 117 0.0 0.0 0.00 0.00 0.00 93 1013.7
20260905010330 80 156 0.0 0.0 0.00 0.00 0.00 94 1013.7
20260905005826 80 127 0.0 0.0 0.00 0.00 0.00 94 1013.7
20260905005321 80 151 0.0 0.0 0.00 0.00 0.00 95 1013.6
20260905004816 80 132 0.0 0.0 0.00 0.00 0.00 95 1013.5
20260905004311 80 127 0.0 0.0 0.00 0.00 0.00 95 1013.7
20260905003806 80 159 0.0 0.0 0.00 0.00 0.00 94 1013.9
20260905003302 80 129 0.0 0.0 0.00 0.00 0.00 94 1013.8
20260905002757 80 124 0.0 0.0 0.00 0.00 0.00 93 1013.4
20260905002257 80 155 0.0 0.0 0.00 0.00 0.00 93 1013.4
20260905001752 80 151 0.0 0.0 0.00 0.00 0.00 93 1013.5
20260905001252 81 161 0.0 0.0 0.00 0.00 0.00 92 1013.7
20260905000747 81 128 0.0 0.0 0.00 0.00 0.00 91 1013.6
20260905000243 81 134 0.0 0.0 0.00 0.00 0.00 90 1013.9
20260904235738 82 102 0.0 0.0 0.00 0.00 0.00 91 1013.9
20260904235232 82 120 0.0 0.0 0.00 0.00 0.00 91 1014.0
20260904234727 83 128 0.0 0.0 0.00 0.00 0.00 91 1014.0
20260904234222 83 154 0.0 0.0 0.00 0.00 0.00 90 1013.9
20260904233718 84 202 0.0 0.0 0.00 0.00 0.00 89 1013.9
20260904233214 84 132 0.0 0.0 0.00 0.00 0.00 89 1014.0
20260904232711 85 162 0.0 0.0 0.00 0.00 0.00 88 1014.0
20260904232207 85 141 0.0 0.0 0.00 0.00 0.00 88 1013.8
20260904231701 86 140 0.0 0.0 0.00 0.00 0.00 86 1014.1
20260904231156 86 149 0.0 0.0 0.00 0.00 0.00 85 1014.0
20260904230651 87 98 0.0 0.0 0.00 0.00 0.00 84 1013.7
20260904230146 88 144 0.0 0.0 0.00 0.00 0.00 83 1013.5
20260904225644 88 167 0.0 0.0 0.00 0.00 0.00 83 1013.3
20260904225139 88 151 0.0 0.0 0.00 0.00 0.00 84 1013.3
20260904224633 87 135 0.0 0.0 0.00 0.00 0.00 85 1013.3
20260904224127 86 134 0.0 0.0 0.00 0.00 0.00 85 1013.2
20260904223627 85 168 0.0 0.0 0.00 0.00 0.00 86 1013.1
20260904223122 86 155 0.0 0.0 0.00 0.00 0.00 86 1013.2
20260904222618 86 177 0.0 0.0 0.00 0.00 0.00 85 1013.1
20260904222113 86 164 0.0 0.0 0.00 0.00 0.00 83 1012.9
20260904221608 86 177 0.0 0.0 0.00 0.00 0.00 82 1012.7
20260904221108 88 183 0.0 0.0 0.00 0.00 0.00 82 1012.7
20260904220603 89 122 0.0 0.0 0.00 0.00 0.00 79 1012.7
20260904220058 89 232 0.0 1.0 0.00 0.00 0.00 79 1012.7
20260904215558 89 342 0.0 0.0 0.00 0.00 0.00 80 1012.8
20260904215054 90 253 0.0 0.0 0.00 0.00 0.00 78 1012.8
20260904214549 91 257 0.0 0.0 0.00 0.00 0.00 76 1013.0
20260904214044 91 318 0.0 0.0 0.00 0.00 0.00 76 1013.0
20260904213542 91 260 0.0 0.0 0.00 0.00 0.00 78 1012.4
20260904213039 91 213 1.0 2.0 0.00 0.00 0.00 77 1012.4
20260904212538 90 199 0.0 0.0 0.00 0.00 0.00 78 1012.7
20260904212034 90 272 0.0 0.0 0.00 0.00 0.00 78 1012.8
20260904211534 90 9 0.0 0.0 0.00 0.00 0.00 79 1012.5
20260904211029 89 277 0.0 1.0 0.00 0.00 0.00 79 1012.4
20260904210528 89 274 0.0 0.0 0.00 0.00 0.00 79 1012.6
20260904210025 89 292 1.0 2.0 0.00 0.00 0.00 80 1012.6
20260904205520 89 303 5.0 7.0 0.00 0.00 0.00 78 1012.4
20260904205016 89 297 4.0 6.0 0.00 0.00 0.00 79 1012.5
20260904204512 89 317 3.0 6.0 0.00 0.00 0.00 78 1012.4
20260904204008 89 259 1.0 5.0 0.00 0.00 0.00 79 1012.3
20260904203504 89 273 0.0 1.0 0.00 0.00 0.00 80 1012.7
20260904203000 89 271 0.0 0.0 0.00 0.00 0.00 79 1012.5
20260904202456 90 300 0.0 0.0 0.00 0.00 0.00 79 1012.5
20260904201952 91 290 3.0 5.0 0.00 0.00 0.00 77 1012.3
20260904201451 92 208 0.0 0.0 0.00 0.00 0.00 76 1012.1
20260904200948 93 283 0.0 0.0 0.00 0.00 0.00 70 1012.4
20260904200445 95 266 0.0 1.0 0.00 0.00 0.00 69 1012.5
20260904195941 95 188 0.0 0.0 0.00 0.00 0.00 69 1012.8
20260904195439 93 187 0.0 0.0 0.00 0.00 0.00 72 1012.5
20260904194938 92 220 0.0 0.0 0.00 0.00 0.00 72 1012.8
20260904194433 92 270 1.0 2.0 0.00 0.00 0.00 74 1013.0
20260904193928 91 224 0.0 0.0 0.00 0.00 0.00 74 1012.8
20260904193423 90 238 0.0 0.0 0.00 0.00 0.00 76 1012.9
20260904192919 89 219 0.0 0.0 0.00 0.00 0.00 75 1013.1
20260904192414 89 170 0.0 0.0 0.00 0.00 0.00 75 1013.2
20260904191910 89 222 0.0 0.0 0.00 0.00 0.00 74 1013.1
20260904191407 90 219 0.0 0.0 0.00 0.00 0.00 73 1013.3
20260904190903 90 171 0.0 0.0 0.00 0.00 0.00 73 1013.2